User: anonymous   Login
Location: Three Oaks Observatory
(31.1535°N, 83.5955°W)
Time: 07:56:24
(UTC-05:00)
Language:

JUGNU - Orbit

View from above orbital plane
View from above orbital plane
View from above satellite
View from above satellite

Ground track
Ground track

The orbit data is extracted from the following two-line orbital elements,

1 37839U 11058B   19322.51633802  .00000292  00000-0  13812-4 0  9992
2 37839  19.9599 128.0177 0018912 211.8886 193.0313 14.12664292418892
Epoch (UTC): 18 November 2019 12:23:31
Eccentricity: 0.0018912
inclination: 19.9599°
perigee height: 836 km
apogee height: 864 km
right ascension of ascending node: 128.0177°
argument of perigee: 211.8886°
revolutions per day: 14.12664292
mean anomaly at epoch: 193.0313°
orbit number at epoch: 41889

The dashed part of the orbit path shows where the satellite is in the earth's shadow,  

DLR